Starlink 30308

operational
NORAD ID: 57742 Int'l Des: 2023-131 Owner: SPXS Country: US Constellation: starlink
LEOCIRCULAR

About Starlink 30308

Description loading...

Live Position

Loading 3D Globe...

Upcoming Passes

Altitude History

Altitude vs Time

uPlot chart will show altitude changes over time

Two-Line Element Set

1 57742U 23131L 26015.64943498 .00000219 00000-0 31276-4 0 9991
2 57742 43.0025 100.1592 0001344 268.9498 91.1190 15.02535239131952
Epoch: Jan 15, 2026 • Age: 11 hours

Current Status

Altitude 564.1 km
Velocity 7.58 km/s
Sub-Earth Point -23.28°S, 84.17°W
Launch Date Sep 1, 2023
Age 2.3 years
Type internet

Technical Details

Classification Payload
Mass 730.00 kg
Dry Mass 700.00 kg
Total Mass 730.00 kg
Length 0.30 m
Diameter 4.10 m
Span 29.00 m
Shape Box + pan
Manufacturer SPXS
Bus Type Starlink V2M
Phase Status In Orbit
Owner/State SPXS/US

Large Constellations

Loading constellations...